星链-11557 (STARLINK-11557)

导读

STARLINK-11557(星链-11557)是美国太空探索技术公司(SpaceX)研发运营的星链(Starlink)卫星互联网项目低轨道通信卫星,属于第三代星链卫星(v1.5),于2025年1月27日发射,目前保持在轨状态。 它运行在近地轨道,近地点高度约355公里,远地点约358公里,轨道倾角约43°,配备先进通信设备,旨在为全球提供高速低延迟互联网服务,助力扩大网络覆盖范围,服务偏远及基础设施薄弱区域,也可为特定行业提供通信支持。

基本信息
目录编号:
62837
目录名称:
STARLINK-11557
国际标识:
2025-019J
轨道中心:
EARTH
卫星名称:
星链-11557
卫星全名:
星链-11557 (STARLINK-11557)
卫星状态:
在轨 (已飞行503 天)
发射日期:
2025-01-27 UTC
国别 :
美国 (US)
星等 :
--
轨道信息
数据来源 国际轨道数据
星历时间: 2026-06-13T08:00:02+0800
1天前
查看轨道信息
半长轴: 6734.41km
偏心率: 0.0001525
轨道倾角: 43.000°
近地点辐角 270.907°
升交点赤经 91.340°
平近点角 37.126°
近地点: 355.246km
远地点: 357.3km
周期: 91.666分钟
每日圈数: 15.709178
详细信息
固有亮度:
5
最大亮度:
2.5
卫星平台:
Starlink V1.0
覆盖范围:
全球
运营商:
太空探索技术公司
运营商所在国:
美国
制造商(研发单位):
太空探索技术公司
制造商所在国:
美国
使用方式:
暂无
卫星简介
Starlink 计划是 SpaceX 推出的全球卫星互联网项目,通过发射低轨道卫星,为全球尤其是偏远地区提供高速、低延迟的互联网服务。自 2019 年起,Starlink 已部署数千颗卫星,旨在缩小全球数字鸿沟,推动互联网普及。该项目还为军事、航空等行业提供通信支持,带来广泛经济效益。
2D轨道图
3D轨道图
轨道高度分析图
轨道倾角分析图
轨道综合分析图
查看轨道综合分析图